Weather History for Wautoma, WI

Change the Weather History Date:

Saturday, September 7, 2013

  Actual Average (KPCZ) Record (KPCZ)
Temperature  
Mean Temperature 77 °F -  
Max Temperature 90 °F 77 °F 95 °F (1959)
Min Temperature 64 °F 53 °F 34 °F (1986)
Cooling Degree Days 12    
Growing Degree Days 27 (Base 50)    
Moisture  
Dew Point 67 °F    
Average Humidity 78    
Maximum Humidity 100    
Minimum Humidity 45    
Precipitation  
Precipitation 0.00 in - - ()
Sea Level Pressure  
Sea Level Pressure 29.92 in    
Wind  
Wind Speed 4 mph (ESE)    
Max Wind Speed 15 mph    
Max Gust Speed 24 mph    
Visibility 10 miles    
Events      
Averages and records for this station are not official NWS values.
T = Trace of Precipitation, MM = Missing Value Source: NWS Daily Summary

Daily Weather History Graph

Daily Weather History Graph

Search for Another Location

Airport:

Trip Planner

Search our weather history database for the weather conditions in past years. The results will help you decide how hot, cold, wet, or windy it might be!

Date:

Astronomy

Sep. 07, 2013 Rise Set
Actual Time 6:27 AM CDT 7:21 PM CDT
Civil Twilight 5:58 AM CDT 7:51 PM CDT
Nautical Twilight 5:23 AM CDT 8:26 PM CDT
Astronomical Twilight 4:46 AM CDT 9:02 PM CDT
Moon 8:48 AM CDT (9/7) 8:12 PM CDT (9/7)
Length of Visible Light 13h 53m
Length of Day
12h 54m
Waxing Crescent, 5% of the Moon is Illuminated
Sep 7
Waxing Crescent
Sep 12
First Quarter
Sep 19
Full
Sep 26
Last Quarter
Oct 4
New

Hourly Weather History & Observations

Time (CDT) Temp. Heat Index Dew Point Humidity Pressure Visibility Wind Dir Wind Speed Gust Speed Precip Events Conditions
12:56 AM 68.9 °F - 63.9 °F 84% 29.95 in 10.0 mi Calm Calm - N/A   Mostly Cloudy
1:56 AM 65.8 °F - 65.8 °F 100% 29.95 in 10.0 mi South 3.5 mph - N/A   Partly Cloudy
2:56 AM 64.9 °F - 64.9 °F 100% 29.93 in 10.0 mi Calm Calm - N/A   Clear
3:56 AM 64.9 °F - 64.9 °F 100% 29.91 in 10.0 mi SW 3.5 mph - N/A   Clear
4:56 AM 64.9 °F - 64.9 °F 100% 29.91 in 10.0 mi Calm Calm - N/A   Clear
5:56 AM 64.9 °F - 64.9 °F 100% 29.91 in 10.0 mi Calm Calm - N/A   Clear
6:56 AM 65.8 °F - 65.8 °F 100% 29.91 in 10.0 mi Calm Calm - N/A   Clear
7:56 AM 70.9 °F - 63.9 °F 78% 29.91 in 10.0 mi SSW 6.9 mph - N/A   Partly Cloudy
8:56 AM 72.0 °F - 63.9 °F 76% 29.89 in 10.0 mi SSW 6.9 mph - N/A   Scattered Clouds
9:56 AM 75.2 °F - 64.4 °F 69% 29.91 in 10.0 mi SW 8.1 mph - N/A   Partly Cloudy
10:56 AM 77.9 °F - 64.9 °F 64% 29.90 in 10.0 mi Variable 5.8 mph - N/A   Mostly Cloudy
11:56 AM 81.0 °F 82.7 °F 64.9 °F 58% 29.89 in 10.0 mi Variable 3.5 mph - N/A   Scattered Clouds
12:56 PM 86.0 °F 87.6 °F 64.9 °F 49% 29.87 in 10.0 mi SE 4.6 mph - N/A   Clear
1:56 PM 88.9 °F 91.0 °F 65.8 °F 46% 29.86 in 10.0 mi Variable 4.6 mph - N/A   Clear
2:56 PM 90.9 °F 94.0 °F 66.9 °F 45% 29.86 in 10.0 mi SSE 6.9 mph - N/A   Clear
3:56 PM 88.9 °F 91.8 °F 66.9 °F 48% 29.86 in 10.0 mi Variable 3.5 mph - N/A   Scattered Clouds
4:56 PM 88.9 °F 92.6 °F 68.0 °F 50% 29.87 in 10.0 mi ESE 3.5 mph - N/A   Clear
5:56 PM 86.0 °F 89.7 °F 68.9 °F 56% 29.88 in 10.0 mi East 6.9 mph - N/A   Clear
6:56 PM 82.9 °F 86.3 °F 68.9 °F 62% 29.90 in 10.0 mi East 5.8 mph - N/A   Clear
7:56 PM 77.9 °F - 68.9 °F 74% 29.94 in 10.0 mi NE 9.2 mph - N/A   Scattered Clouds
8:56 PM 72.9 °F - 66.9 °F 82% 29.96 in 10.0 mi Calm Calm - N/A   Clear
9:56 PM 70.9 °F - 70.0 °F 97% 29.98 in 10.0 mi NE 11.5 mph - N/A   Clear
10:17 PM 71.6 °F - 71.6 °F 100% 30.01 in 10.0 mi ENE 10.4 mph - N/A   Mostly Cloudy
10:33 PM 71.6 °F - 71.6 °F 100% 30.02 in 10.0 mi ENE 15.0 mph 24.2 mph N/A   Overcast
10:56 PM 70.9 °F - 70.0 °F 97% 30.01 in 10.0 mi NE 11.5 mph - N/A   Overcast
11:56 PM 68.0 °F - 64.9 °F 90% 30.04 in 10.0 mi NE 13.8 mph 24.2 mph N/A   Overcast